| time (UTC) | temp F | wind direction | speed knots | gust knots | rain 1hr in | rain 24hr in | rain mn in | humidity % | barometer mb |
| 20260506153110 | 72 | 130 | 13.9 | 0.0 | 0.00 | 0.00 | 0.00 | 40 | 1005.0 |
| 20260506152121 | 72 | 120 | 13.9 | 0.0 | 0.00 | 0.00 | 0.00 | 43 | |
| 20260506150113 | 72 | 120 | 13.9 | 0.0 | 0.00 | 0.00 | 0.00 | 43 | 1005.0 |
| 20260506143109 | 70 | 120 | 13.0 | 0.0 | 0.00 | 0.00 | 0.00 | 46 | 1006.0 |
| 20260506142048 | 72 | 140 | 15.6 | 0.0 | 0.00 | 0.00 | 0.00 | 46 | |
| 20260506140105 | 72 | 140 | 13.9 | 0.0 | 0.00 | 0.00 | 0.00 | 43 | 1006.0 |
| 20260506133109 | 70 | 130 | 15.6 | 0.0 | 0.00 | 0.00 | 0.00 | 46 | 1006.0 |
| 20260506132048 | 70 | 130 | 13.9 | 0.0 | 0.00 | 0.00 | 0.00 | 46 | |
| 20260506130113 | 70 | 120 | 13.0 | 0.0 | 0.00 | 0.00 | 0.00 | 46 | 1007.0 |
| 20260506123110 | 70 | 150 | 8.7 | 0.0 | 0.00 | 0.00 | 0.00 | 43 | 1007.0 |
| 20260506122048 | 70 | 160 | 10.4 | 0.0 | 0.00 | 0.00 | 0.00 | 46 | |
| 20260506120246 | 70 | 150 | 8.7 | 0.0 | 0.00 | 0.00 | 0.00 | 43 | 1007.0 |
| 20260506112034 | 70 | 150 | 10.4 | 0.0 | 0.00 | 0.00 | 0.00 | 40 | |
| 20260506110113 | 70 | 160 | 7.8 | 0.0 | 0.00 | 0.00 | 0.00 | 40 | 1007.0 |
| 20260506103110 | 70 | 160 | 8.7 | 0.0 | 0.00 | 0.00 | 0.00 | 40 | 1008.0 |
| 20260506102234 | 68 | 180 | 6.1 | 0.0 | 0.00 | 0.00 | 0.00 | 49 | |
| 20260506100112 | 70 | 180 | 7.8 | 0.0 | 0.00 | 0.00 | 0.00 | 46 | 1008.0 |
| 20260506093110 | 68 | 170 | 7.0 | 0.0 | 0.00 | 0.00 | 0.00 | 49 | 1008.0 |
| 20260506092028 | 66 | 160 | 7.8 | 0.0 | 0.00 | 0.00 | 0.00 | 55 | |
| 20260506090241 | 64 | 160 | 8.7 | 0.0 | 0.00 | 0.00 | 0.00 | 59 | 1008.0 |
| 20260506083110 | 64 | 170 | 8.7 | 0.0 | 0.00 | 0.00 | 0.00 | 59 | 1008.0 |
| 20260506082033 | 63 | 230 | 6.1 | 0.0 | 0.00 | 0.00 | 0.00 | 63 | |
| 20260506080104 | 64 | 220 | 6.1 | 0.0 | 0.00 | 0.00 | 0.00 | 59 | 1008.0 |
| 20260506073110 | 63 | 210 | 6.1 | 0.0 | 0.00 | 0.00 | 0.00 | 63 | 1008.0 |
| 20260506072035 | 63 | 200 | 6.1 | 0.0 | 0.00 | 0.00 | 0.00 | 63 | |
| 20260506070247 | 61 | 200 | 5.2 | 0.0 | 0.00 | 0.00 | 0.00 | 67 | 1008.0 |
| 20260506062108 | 57 | 220 | 4.3 | 0.0 | 0.00 | 0.00 | 0.00 | 82 | |
| 20260506060112 | 57 | 230 | 5.2 | 0.0 | 0.00 | 0.00 | 0.00 | 82 | 1008.0 |
| 20260506050105 | 54 | 210 | 5.2 | 0.0 | 0.00 | 0.00 | 0.00 | 93 | 1008.0 |
| 20260506043110 | 54 | 210 | 5.2 | 0.0 | 0.00 | 0.00 | 0.00 | 93 | 1007.0 |
| 20260506042247 | 52 | 180 | 4.3 | 0.0 | 0.00 | 0.00 | 0.00 | 93 | |
| 20260506040242 | 52 | 180 | 4.3 | 0.0 | 0.00 | 0.00 | 0.00 | 93 | 1007.0 |
| 20260506033109 | 54 | 250 | 4.3 | 0.0 | 0.00 | 0.00 | 0.00 | 87 | 1007.0 |
| 20260506032036 | 54 | 260 | 4.3 | 0.0 | 0.00 | 0.00 | 0.00 | 87 | |
| 20260506030241 | 54 | 260 | 4.3 | 0.0 | 0.00 | 0.00 | 0.00 | 87 | 1007.0 |
| 20260506023230 | 54 | 280 | 6.1 | 0.0 | 0.00 | 0.00 | 0.00 | 87 | 1007.0 |
| 20260506022034 | 54 | 270 | 7.8 | 0.0 | 0.00 | 0.00 | 0.00 | 87 | |
| 20260506020105 | 55 | 270 | 7.0 | 0.0 | 0.00 | 0.00 | 0.00 | 87 | 1007.0 |
| 20260506013109 | 57 | 300 | 11.3 | 0.0 | 0.00 | 0.00 | 0.00 | 82 | 1006.0 |
| 20260506012134 | 57 | 320 | 10.4 | 0.0 | 0.00 | 0.00 | 0.00 | 76 | |
| 20260506010111 | 57 | 320 | 10.4 | 0.0 | 0.00 | 0.00 | 0.00 | 76 | 1006.0 |
| 20260506005605 | 57 | 300 | 8.7 | 0.0 | 0.00 | 0.00 | 0.00 | 76 | 1006.0 |
| 20260506002033 | 57 | 250 | 6.1 | 0.0 | 0.00 | 0.00 | 0.00 | 67 | |
| 20260506000242 | 57 | 230 | 5.2 | 0.0 | 0.00 | 0.00 | 0.00 | 67 | 1006.0 |
| 20260505233110 | 57 | 110 | 5.2 | 0.0 | 0.00 | 0.00 | 0.00 | 67 | 1006.0 |
| 20260505232032 | 57 | 100 | 6.1 | 0.0 | 0.00 | 0.00 | 0.00 | 67 | |
| 20260505230105 | 57 | 110 | 4.3 | 0.0 | 0.00 | 0.00 | 0.00 | 67 | 1005.0 |
| 20260505223110 | 57 | 110 | 7.0 | 0.0 | 0.00 | 0.00 | 0.00 | 67 | 1005.0 |
| 20260505222034 | 57 | 120 | 7.8 | 0.0 | 0.00 | 0.00 | 0.00 | 67 | |
| 20260505220242 | 59 | 110 | 8.7 | 0.0 | 0.00 | 0.00 | 0.00 | 62 | 1005.0 |
| 20260505213109 | 59 | 110 | 8.7 | 0.0 | 0.00 | 0.00 | 0.00 | 58 | 1005.0 |
| 20260505212123 | 59 | 110 | 10.4 | 0.0 | 0.00 | 0.00 | 0.00 | 58 | |
| 20260505210253 | 59 | 110 | 8.7 | 0.0 | 0.00 | 0.00 | 0.00 | 58 | 1005.0 |
| 20260505203116 | 61 | 100 | 8.7 | 0.0 | 0.00 | 0.00 | 0.00 | 55 | 1005.0 |
| 20260505202055 | 61 | 110 | 10.4 | 0.0 | 0.00 | 0.00 | 0.00 | 55 | |
| 20260505200105 | 61 | 110 | 10.4 | 0.0 | 0.00 | 0.00 | 0.00 | 55 | 1005.0 |
| 20260505193110 | 63 | 110 | 10.4 | 0.0 | 0.00 | 0.00 | 0.00 | 51 | 1005.0 |
| 20260505192106 | 63 | 110 | 10.4 | 0.0 | 0.00 | 0.00 | 0.00 | 51 | |
| 20260505190104 | 63 | 100 | 10.4 | 0.0 | 0.00 | 0.00 | 0.00 | 51 | 1005.0 |
| 20260505183110 | 66 | 110 | 11.3 | 0.0 | 0.00 | 0.00 | 0.00 | 45 | 1005.0 |
| 20260505182049 | 66 | 120 | 13.9 | 0.0 | 0.00 | 0.00 | 0.00 | 45 | |
| 20260505180240 | 68 | 130 | 13.0 | 0.0 | 0.00 | 0.00 | 0.00 | 42 | 1005.0 |
| 20260505173109 | 70 | 130 | 13.9 | 0.0 | 0.00 | 0.00 | 0.00 | 40 | 1005.0 |
| 20260505172104 | 72 | 140 | 13.9 | 0.0 | 0.00 | 0.00 | 0.00 | 37 | |
| 20260505170240 | 73 | 140 | 12.2 | 0.0 | 0.00 | 0.00 | 0.00 | 35 | 1005.0 |
| 20260505163104 | 75 | 130 | 12.2 | 0.0 | 0.00 | 0.00 | 0.00 | 31 | 1005.0 |
| 20260505162221 | 75 | 120 | 12.2 | 0.0 | 0.00 | 0.00 | 0.00 | 27 | |
| 20260505160112 | 75 | 120 | 12.2 | 0.0 | 0.00 | 0.00 | 0.00 | 25 | 1005.0 |